EHI
0 0 0 0 0 0 0 0 0 0 0 0 0 0 0 1 2 2 3 4 5 7 8 9 10 10 9 9 8 6 4 4 3 2 2 3 4 5 5 5 5 4 3 2
0 0 0 0 0 0 0 0 0 0 0 0 0 0 0 0 1 1 1 2 3 5 7 8 9 9 8 7 5 3 2 1 1 1 1 1 3 3 3 3 3 2 1 1
0 0 0 0 0 0 0 0 0 0 0 0 0 0 0 0 0 0 1 2 3 5 6 7 7 7 6 4 2 1 0 0 0 0 0 0 1 1 1 1 1 0 0 0
0 0 0 0 0 0 0 0 0 1 1 0 0 0 0 0 0 0 1 3 4 5 6 6 6 5 4 3 1 0 0 0 0 0 0 0 0 0 0 0 0 0 0 0
0 0 0 0 0 0 0 0 0 1 1 0 0 0 0 0 0 1 2 3 3 4 4 4 4 4 3 2 1 0 0 0 0 0 0 0 0 0 0 0 0 0 0 0
0 0 0 0 0 0 0 0 0 0 0 0 0 0 0 0 1 2 4 3 2 2 3 3 4 3 2 1 0 0 0 0 0 0 0 0 0 0 0 0 0 0 0 0
0 0 0 0 0 0 0 0 0 0 0 0 0 1 1 1 2 4 4 2 1 1 1 2 2 1 1 0 0 0 0 0 0 0 0 0 0 0 0 0 0 0 0 0
0 0 0 0 0 0 0 0 0 0 0 0 1 2 2 2 4 4 2 1 1 1 1 1 1 0 0 0 0 0 0 0 0 0 0 0 0 0 0 0 0 0 0 0
0 0 0 0 0 0 0 0 0 0 0 0 1 1 1 2 4 3 1 0 1 1 0 0 0 0 0 0 0 0 0 0 0 0 0 0 0 0 0 0 0 0 0 0
0 0 0 0 0 0 0 0 0 0 0 0 0 0 0 1 2 1 0 1 2 1 1 1 0 0 0 0 0 0 0 0 0 0 0 0 0 0 0 0 0 0 0 0
0 0 0 0 0 0 0 0 0 0 0 0 0 0 0 0 0 0 1 2 2 2 1 1 0 0 0 0 0 0 0 0 0 0 0 0 0 0 0 0 0 0 0 0
0 0 0 0 0 0 0 0 0 0 0 0 0 0 0 0 0 0 1 1 1 1 1 0 0 0 0 0 0 0 0 0 0 0 0 0 0 0 0 0 0 0 0 0
0 0 0 0 0 0 0 0 0 0 0 0 0 0 0 0 0 0 0 0 0 0 0 0 0 0 0 0 0 0 0 0 0 0 0 0 0 0 0 0 0 0 0 0
0 0 0 0 0 0 0 0 0 0 0 0 0 0 0 0 0 0 0 0 0 0 0 0 0 0 0 0 0 0 0 0 0 0 0 0 0 0 0 0 0 0 0 0
0 0 0 0 0 0 0 0 0 0 0 0 0 0 0 0 0 0 0 0 0 0 0 0 0 0 0 0 0 0 0 0 0 1 1 0 0 0 0 0 0 0 0 0
0 0 0 0 0 0 0 0 0 0 0 0 0 0 0 0 0 0 0 0 0 0 0 0 0 0 0 0 0 0 0 0 0 1 1 1 1 1 0 0 0 0 0 0
0 0 0 0 0 0 0 0 0 0 0 0 0 0 0 0 0 0 0 0 0 0 0 0 0 0 0 0 0 0 0 0 0 1 1 1 2 1 0 0 0 0 0 0
0 0 0 0 0 0 0 0 0 0 0 0 0 0 0 0 0 0 0 0 0 0 0 0 0 0 0 0 0 0 0 0 0 0 0 1 1 1 0 0 0 0 0 0
0 0 0 0 0 0 0 0 0 0 0 0 0 0 0 0 0 0 0 0 0 0 0 0 0 0 0 0 0 0 0 0 0 0 0 0 0 0 0 0 0 0 0 0
0 0 0 0 0 0 0 0 0 0 0 0 0 0 0 0 0 0 0 0 0 0 0 0 0 0 0 0 0 0 0 0 0 0 0 0 0 0 0 0 0 0 0 0
0 0 0 0 0 0 0 0 0 0 0 0 0 0 0 0 0 0 0 0 0 0 0 0 0 0 0 0 0 0 0 0 0 0 0 0 0 0 0 0 0 0 0 0
0 0 0 0 0 0 0 0 0 0 0 0 0 0 0 0 0 0 0 0 0 0 0 0 0 0 0 0 0 0 0 0 0 0 0 0 0 0 0 0 0 0 0 0
0 0 0 0 0 0 0 0 0 0 0 0 0 0 0 0 0 0 0 0 0 0 0 0 0 0 0 0 0 0 0 0 0 0 0 0 0 0 0 0 0 0 0 0
0 0 0 0 0 0 0 0 0 0 0 0 0 0 0 0 0 0 0 0 0 0 0 0 0 0 0 0 0 0 0 0 0 0 0 0 0 0 0 0 0 0 0 0
0 0 0 0 0 0 0 0 0 0 0 0 0 0 0 0 0 0 0 0 0 0 0 0 0 0 0 0 0 0 0 0 0 0 0 0 0 0 0 0 0 0 0 0
0 0 0 0 0 0 0 0 0 0 0 0 0 0 0 0 0 0 0 1 1 0 0 0 0 0 0 0 0 0 0 0 0 0 0 0 0 0 0 0 0 0 0 0
0 0 0 0 0 0 0 0 0 0 0 0 0 0 0 0 0 0 1 2 2 1 0 0 0 0 0 0 0 0 0 0 0 0 0 0 0 0 0 0 0 0 0 0
Wind_Speed
4 4 4 5 5 5 6 8 8 6 4 3 2 2 2 2 2 3 4 5 5 5 5 5 6 5 5 5 5 4 4 4 3 3 4 4 5 5 5 4 4 4 4 4
5 4 4 6 6 6 6 6 6 5 3 2 1 1 1 2 2 3 4 5 5 5 5 5 6 5 5 5 5 4 4 5 4 4 4 4 4 4 5 5 5 4 4 4
6 4 7 7 4 5 5 4 5 5 2 2 1 1 1 2 3 4 5 5 5 5 5 5 5 5 5 5 5 5 5 5 4 4 4 5 5 5 5 5 5 4 4 4
5 5 8 2 2 2 3 3 2 2 0 1 0 1 1 1 3 4 4 5 5 4 5 5 5 5 5 5 5 5 5 6 5 5 5 5 5 6 6 5 5 5 5 5
5 7 5 3 3 2 3 3 1 1 2 2 2 2 2 2 3 3 4 4 4 4 4 4 5 5 5 5 5 5 6 6 6 5 6 6 6 6 5 5 5 5 5 5
6 7 6 3 5 1 4 4 4 2 2 2 2 3 3 3 2 2 3 3 4 4 4 4 5 5 5 5 6 6 6 6 6 6 6 7 6 6 6 5 6 6 5 5
7 7 1 5 3 4 5 3 4 2 2 2 2 3 3 1 1 2 2 3 3 4 4 4 5 5 5 6 6 6 7 6 6 6 6 6 6 6 6 6 5 6 6 6
5 7 1 5 3 2 4 3 2 2 2 1 0 1 1 1 1 2 3 3 3 3 4 4 4 5 5 6 6 6 7 6 6 6 6 5 6 6 6 6 6 6 5 6
2 3 5 3 1 2 1 1 2 1 1 1 1 1 1 1 2 3 3 3 3 4 4 4 4 5 6 6 6 7 7 7 7 7 6 6 6 6 6 5 5 5 5 5
2 2 3 3 2 2 2 1 2 2 1 1 1 0 1 2 2 3 3 3 4 4 5 5 5 5 6 6 6 7 7 7 7 6 6 5 5 5 5 5 5 5 5 5
3 2 3 3 2 2 2 2 3 3 2 1 1 0 1 1 3 3 4 4 4 5 5 6 6 6 6 6 7 7 7 7 7 6 6 5 4 4 6 4 5 6 6 5
2 3 2 3 3 3 3 3 3 3 3 2 1 1 1 2 3 3 4 4 5 5 6 6 6 6 6 6 6 7 7 7 6 6 5 5 5 4 2 4 3 3 5 6
0 2 2 4 4 3 3 3 3 2 2 1 1 0 1 2 3 4 5 5 5 6 7 7 7 7 7 7 7 6 7 7 6 6 5 5 5 6 5 3 5 5 5 5
3 3 5 4 4 3 3 3 2 2 1 1 1 1 2 3 4 4 5 6 6 6 7 7 8 8 8 7 7 7 7 6 6 5 6 6 5 6 5 5 4 3 3 5
3 3 4 4 4 3 3 3 2 1 1 0 1 2 3 4 5 5 5 6 6 7 7 7 7 8 8 7 7 7 7 6 5 6 6 6 5 5 5 5 5 4 3 2
4 4 5 4 4 3 3 2 1 0 1 2 2 3 4 5 5 6 6 6 7 7 7 8 8 8 8 7 7 6 5 5 6 6 6 6 5 5 4 5 5 5 4 4
5 5 4 3 3 2 2 2 1 2 2 3 4 4 5 6 6 6 7 7 7 7 7 7 8 8 8 7 8 7 6 5 5 6 5 5 5 5 5 5 5 4 4 3
3 3 3 3 3 3 3 3 2 3 3 4 5 5 5 6 7 7 7 8 8 7 7 8 8 8 8 8 7 7 7 7 6 5 5 5 5 5 5 5 5 6 4 2
3 2 2 2 3 3 3 3 4 4 4 5 5 6 7 7 8 8 8 8 8 8 7 8 7 8 8 7 7 6 7 7 6 6 5 5 5 5 5 5 5 5 4 4
2 1 1 2 3 3 4 4 4 5 5 6 6 7 8 8 8 8 8 8 6 6 7 7 8 7 7 7 7 7 7 7 7 6 6 5 5 5 5 5 5 5 4 4
1 1 1 2 3 4 4 5 5 5 6 6 7 8 8 8 8 8 8 7 5 6 6 6 6 6 6 7 8 8 7 6 6 6 6 6 5 5 5 5 5 4 4 4
1 1 2 3 4 4 4 5 5 6 6 7 8 8 8 8 8 8 8 6 6 4 6 6 5 5 7 9 8 7 6 6 6 5 5 5 6 5 5 5 5 4 4 4
3 3 3 4 4 5 5 6 6 7 7 7 7 7 8 7 7 6 6 4 5 5 7 6 5 5 8 8 7 6 6 6 6 5 5 5 5 5 5 5 4 4 3 4
3 4 4 5 5 6 6 6 7 6 7 8 7 7 7 6 6 5 5 4 5 7 7 4 3 5 9 7 6 5 5 5 5 5 5 5 5 5 5 4 4 3 3 4
5 5 5 5 6 5 6 6 7 7 7 6 7 6 6 5 6 6 6 7 6 6 6 4 4 6 7 5 5 5 5 5 5 6 6 5 5 5 5 4 4 3 3 3
6 6 5 5 5 5 5 5 5 5 5 6 6 5 5 5 6 6 5 6 7 6 7 5 4 5 5 5 4 5 5 4 4 4 5 5 5 5 5 5 5 4 3 3
7 6 5 5 5 5 5 5 5 5 5 6 6 6 6 6 6 6 7 6 6 5 5 5 5 5 4 4 4 4 4 4 5 4 4 4 5 4 4 4 4 3 3 2
Wind_Direction
272 292 272 259 256 243 249 274 288 303 310 345 345 321 338 332 336 336 342 352 352 345 343 341 339 335 337 336 332 326 318 313 312 314 313 314 318 316 316 308 295 285 277 274
238 239 247 254 253 248 255 268 277 283 298 47 42 284 298 319 328 339 346 354 353 349 344 341 338 337 340 339 339 338 333 328 328 319 317 317 315 312 312 309 300 283 270 274
246 235 252 242 239 242 240 258 275 285 341 121 213 244 313 325 333 341 347 351 351 350 349 344 338 337 334 334 337 334 329 325 326 321 320 320 319 316 315 311 304 292 283 279
256 243 252 57 68 266 254 257 281 298 146 183 75 28 4 4 348 346 345 343 346 344 346 344 344 341 332 333 336 332 329 327 325 322 318 317 315 316 313 307 303 295 292 289
253 251 249 177 160 200 239 234 164 155 139 131 109 206 147 65 2 344 337 333 334 332 338 341 346 342 335 335 334 332 332 330 328 324 318 316 315 312 309 307 303 298 295 295
246 264 267 92 108 160 242 201 132 149 154 155 210 254 74 57 351 351 347 346 336 328 334 343 344 340 336 335 335 333 331 328 326 321 316 314 310 304 304 303 299 299 300 296
247 255 248 78 113 201 243 63 119 168 186 214 260 356 43 39 343 341 349 348 334 326 337 342 339 335 332 331 333 329 326 323 321 317 311 307 306 306 305 298 299 297 297 294
241 251 171 98 166 249 26 66 145 178 199 226 283 39 28 4 350 338 343 345 337 332 336 338 338 333 330 331 329 324 321 319 316 311 306 307 305 304 303 299 293 285 284 286
307 25 70 130 111 50 55 115 148 175 171 204 212 237 320 349 343 335 337 342 331 323 329 336 339 333 326 326 321 317 316 315 312 307 303 301 300 300 299 295 293 297 296 300
216 128 111 126 106 96 90 109 133 127 138 178 207 329 339 347 343 336 337 332 321 315 322 330 333 326 317 316 315 312 312 311 309 306 303 306 305 302 304 309 307 306 307 311
224 150 153 141 120 97 92 101 110 106 102 95 82 55 356 344 344 336 330 327 319 313 315 320 321 320 318 318 314 312 311 310 309 310 314 314 308 310 309 317 324 312 315 314
241 168 200 165 155 122 121 115 108 108 96 80 71 50 359 353 347 334 327 323 320 317 317 317 316 317 321 319 312 308 307 309 310 311 314 309 309 301 276 269 275 266 276 292
310 159 151 143 141 137 131 123 120 121 112 93 78 22 334 337 335 332 328 325 324 320 318 318 315 314 321 321 314 307 305 307 307 311 312 308 310 308 306 271 230 232 240 248
137 149 152 146 140 139 134 131 130 125 112 89 52 329 321 320 324 326 326 326 324 319 318 320 318 320 322 317 309 304 302 300 299 304 305 305 304 302 301 303 301 285 227 219
155 162 147 141 141 143 145 147 146 122 86 19 319 306 308 311 315 318 319 320 317 313 317 321 321 323 321 315 309 302 300 303 307 305 300 298 302 305 307 309 307 304 301 235
154 149 150 149 148 149 155 163 189 229 298 306 307 308 307 304 305 308 312 315 314 316 318 318 321 322 319 316 309 298 292 293 295 297 298 300 301 303 306 306 307 308 308 312
164 162 162 160 161 168 183 210 244 274 295 299 304 301 296 298 301 305 308 312 310 309 310 311 316 319 317 315 309 300 300 297 272 280 294 300 302 304 305 304 305 304 307 330
172 172 180 188 196 209 225 238 252 270 283 293 295 292 293 296 299 304 307 307 304 306 311 311 319 318 315 315 310 303 304 304 302 303 303 300 301 299 299 300 301 302 302 289
151 167 191 211 228 236 245 254 263 271 279 284 289 292 292 293 297 299 300 300 299 302 316 321 322 305 306 314 312 291 295 300 302 303 302 303 293 298 303 304 305 307 310 313
133 157 207 232 246 256 263 265 270 274 279 283 285 288 289 293 295 295 296 291 294 307 311 312 303 299 303 309 306 296 300 303 307 308 305 305 306 303 304 308 313 313 312 313
163 239 257 266 273 276 280 279 274 275 278 281 284 285 288 291 290 290 289 289 299 310 305 294 285 298 310 318 291 290 299 305 307 308 306 307 305 304 308 310 310 308 312 313
278 273 279 286 286 286 289 286 280 280 282 284 285 287 288 288 287 286 286 293 301 316 297 291 298 334 329 309 294 299 306 311 310 311 310 310 308 305 309 313 311 311 315 313
292 295 295 293 291 291 291 291 291 288 285 286 288 288 289 293 294 291 294 306 307 311 293 299 332 330 307 289 293 304 311 311 309 309 309 305 301 302 307 309 309 313 315 311
290 286 290 294 291 285 286 291 293 292 290 283 279 283 287 287 287 288 297 298 293 290 288 303 296 290 281 280 292 297 303 305 306 308 308 310 310 310 311 310 310 314 313 309
285 284 281 278 275 278 283 284 282 283 286 288 287 286 287 291 297 302 303 305 306 293 289 282 251 264 273 289 294 302 309 322 327 323 318 314 314 318 319 314 312 313 313 311
274 275 278 278 281 281 278 278 279 284 288 289 294 300 300 297 295 294 292 294 295 290 289 293 284 268 283 294 300 306 310 312 306 303 310 312 314 318 320 319 319 314 309 306
265 263 261 261 261 266 271 274 278 281 284 289 294 298 300 301 301 301 299 295 294 291 292 291 288 289 295 302 304 304 305 309 310 309 306 306 311 312 310 306 305 302 298 305